This is the latest recevied weather packets stored in our database for station/object KD8NVS-13. If no packets are shown the sender has not sent any weather packets the latest 10 day(s).
| Time | Temp. | Humidity | Pressure | Rain* | Wind** | Luminosity | Snow |
|---|---|---|---|---|---|---|---|
| 1777362998 | 14.44° C | 98% | 1002.8 hPa | 22.35 mm | - | 0 W/m² | - |
| 1777362695 | 15° C | 98% | 1003.2 hPa | 21.59 mm | - | 0 W/m² | - |
| 1777362393 | 15° C | 97% | 1003.5 hPa | 20.57 mm | - | 0 W/m² | - |
| 1777362090 | 15° C | 97% | 1003.8 hPa | 18.8 mm | - | 0 W/m² | - |
| 1777361787 | 15° C | 97% | 1003.8 hPa | 17.02 mm | - | 0 W/m² | - |
| 1777361484 | 15° C | 97% | 1003.5 hPa | 14.73 mm | - | 0 W/m² | - |
| 1777361181 | 15° C | 97% | 1003.5 hPa | 9.4 mm | - | 0 W/m² | - |
| 1777360879 | 15° C | 97% | 1003.5 hPa | 5.08 mm | - | 0 W/m² | - |
| 1777360576 | 15° C | 96% | 1003.2 hPa | 2.79 mm | - | 0 W/m² | - |
| 1777360272 | 15° C | 96% | 1003.2 hPa | 1.52 mm | - | 0 W/m² | - |
| 1777359970 | 15° C | 96% | 1002.5 hPa | 0.76 mm | - | 0 W/m² | - |
| 1777359667 | 15° C | 96% | 1002.1 hPa | 0 mm | - | 0 W/m² | - |
| 1777359363 | 15° C | 95% | 1002.1 hPa | 2.79 mm | - | 0 W/m² | - |
| 1777359061 | 15° C | 95% | 1002.5 hPa | 2.29 mm | - | 0 W/m² | - |
| 1777358759 | 15° C | 95% | 1002.1 hPa | 1.52 mm | - | 0 W/m² | - |
| 1777358456 | 15° C | 94% | 1002.1 hPa | 1.02 mm | - | 0 W/m² | - |
| 1777358153 | 15° C | 94% | 1002.1 hPa | 0.76 mm | - | 0 W/m² | - |
| 1777357851 | 15.56° C | 94% | 1001.8 hPa | 0.76 mm | - | 0 W/m² | - |
| 1777357548 | 15.56° C | 94% | 1001.5 hPa | 0.76 mm | - | 0 W/m² | - |
| 1777357245 | 15.56° C | 94% | 1001.5 hPa | 0.25 mm | - | 0 W/m² | - |
| 1777356941 | 15.56° C | 93% | 1001.5 hPa | 0.25 mm | - | 0 W/m² | - |
| 1777356639 | 15.56° C | 94% | 1001.5 hPa | 0.25 mm | - | 0 W/m² | - |
| 1777356335 | 15.56° C | 93% | 1001.5 hPa | 0 mm | - | 0 W/m² | - |
| 1777356026 | 15.56° C | 93% | 1001.1 hPa | 0 mm | - | 0 W/m² | - |
| 1777355723 | 15.56° C | 93% | 1001.1 hPa | 0.25 mm | - | 0 W/m² | - |
* Rain latest hour (hover to see other rain measurements)
** Current wind speed in m/s (hover to see current wind gust speed)